Regional Weather Roundup
Issued by NWS

Home | Current Version | Previous Version | Text Only | Print | Product List | Glossary Off
Versions: 1 2 3 4 5 6 7 8 9 10 11 12 13 14 15 16 17 18 19 20 21 22 23 24 25 26 27 28 29 30 31 32 33 34 35 36 37 38 39 40 41 42 43 44 45 46 47 48 49 50

000
ASUS45 KSLC 280410
RWRUT

UTAH REGIONAL WEATHER ROUNDUP
NATIONAL WEATHER SERVICE SALT LAKE CITY UT
1000 PM MDT WED AUG 27 2014

UTZ001>011-023>025-280500-

NORTHERN UTAH

CITY           SKY/WX    TMP DP  RH WIND       PRES   REMARKS
HILL AFB       PTCLDY    65  49  55 SE9       30.24R
LOGAN          PTCLDY    64  54  69 E5        30.21R
OGDEN          CLEAR     66  50  56 S9        30.21S
PROVO AIRPORT  CLEAR     61  52  72 SE7       30.26S
SALT LAKE CITY MOCLDY    68  50  52 SE9       30.21R
VERNAL         LGT RAIN  57  54  89 S7        30.27F
WENDOVER       CLEAR     73  41  31 S6        30.20R
HEBER CITY     MOCLDY    54  52  94 CALM      30.32S
WEST JORDAN    CLOUDY    64  57  77 SW6       30.24S

$$

UTZ012>022-026-027-280500-

SOUTHERN UTAH

CITY           SKY/WX    TMP DP  RH WIND       PRES   REMARKS
BRYCE CANYON   CLEAR     51  41  68 W8        30.40R
CEDAR CITY     CLEAR     62  43  49 N5        30.27R
MILFORD        CLEAR     64  48  56 NW7       30.24R
MOAB/CYNLANDS  MOCLDY    70  47  43 NW6       30.20R
PRICE          CLOUDY    60  50  69 W3        30.30R
ST GEORGE      MOCLDY    82  50  32 NE7       30.09R

$$

REGIONAL REPORTS     COLORADO/ARIZONA

CITY           SKY/WX    TMP DP  RH WIND       PRES   REMARKS
CRAIG, CO      CLOUDY    54  51  90 SW6       30.30R
GRAND JUNCTION CLOUDY    58  56  93 CALM      30.25R
RIFLE          CLOUDY    57  53  86 E5        30.28S
MONTROSE       PTCLDY    55  47  74 SE6       30.31S
CORTEZ         CLEAR     51  49  92 SE3       30.31S
PAGE, AZ       CLEAR     74  51  44 CALM      30.18R
GRAND CANYON     N/A    N/A N/A N/A MISG        N/A
KINGMAN        CLEAR     72  45  37 SE3       30.12R
FLAGSTAFF      LGT RAIN  56  53  90 CALM      30.40R

$$

REGIONAL REPORTS    NEVADA/IDAHO/WYOMING

CITY           SKY/WX    TMP DP  RH WIND       PRES   REMARKS
LAS VEGAS, NV  CLEAR     90  34  13 S6        29.98R
ELY            CLEAR     55  40  56 S10       30.31R
ELKO           CLEAR     68  38  33 CALM      30.21R
POCATELLO, ID  CLEAR     63  48  58 S8        30.18R
BURLEY         CLEAR     62  53  72 CALM      30.15R
EVANSTON, WY   PTCLDY    49  47  93 SW10      30.36R
ROCK SPRINGS   CLOUDY    51  49  92 SW14      30.30S

$$



USA.gov is the U.S. government's official web portal to all federal, state and local government web resources and services.